Location: *
(33.9500°S, 25.6000°E)
Time: 00:31:22
(UTC+00:00)

Daily predictions for brighter satellites

Satellite Brightness Start Highest point End
(mag) Time Altitude Azimuth Time Altitude Azimuth Time Altitude Azimuth
SL-16 R/B 4.0 00:51:55 10° SSE 00:54:50 30° SSE 00:54:50 30° SSE
Cosmos 1697 Rocket 3.8 01:22:54 10° S 01:28:15 41° ESE 01:33:31 10° NE
CZ-2C R/B 3.1 01:42:35 29° NE 01:45:06 57° ESE 01:50:14 10° S
Cosmos 972 Rocket 4.3 01:49:00 86° NE 01:49:06 87° ENE 01:55:38 10° SSE
SJ 16-02 3.4 01:52:58 20° S 01:52:58 20° S 01:54:24 10° S
Meteor 1-25 Rocket 4.1 01:51:46 82° E 01:51:46 82° E 01:57:21 10° S
Cosmos 2369 3.8 01:46:30 10° SSW 01:52:17 76° ESE 01:57:57 10° NNE
CZ-4C R/B 2.9 01:54:21 59° W 01:55:11 63° WSW 02:02:26 10° SSE
Milstar 3 3.4 01:57:34 40° N 01:57:34 40° N 02:03:24 10° NE
Cosmos 1867 3.9 01:54:25 18° SSW 01:58:26 64° ESE 02:03:48 10° NE
Cosmos 2082 Rocket 2.6 02:00:08 48° SSW 02:00:08 48° SSW 02:04:41 10° SSE
Meteor 2-13 Rocket 4.4 01:54:39 10° S 02:00:51 81° E 02:07:00 10° N
Cosmos 1980 Rocket 3.2 02:00:23 10° S 02:05:49 45° ESE 02:11:11 10° NE
Meteor 1-14 Rocket 4.2 02:09:37 37° N 02:12:03 90° W 02:18:02 10° S
Cosmos 1655 Rocket 4.0 02:08:33 10° SSW 02:14:41 55° W 02:15:22 52° WNW
Cosmos 1937 Rocket 4.5 02:19:45 31° SW 02:19:45 31° SW 02:23:16 10° S
Helios 1A Rocket 4.4 02:15:52 10° NE 02:19:45 38° ESE 02:23:41 10° S
USA 229 DEB 3.5 02:16:53 10° SW 02:23:33 60° WNW 02:29:56 10° NNE
USA 229 3.5 02:16:57 10° SW 02:23:37 61° WNW 02:30:02 10° NNE
Cosmos 1484 Rocket 3.9 02:22:00 10° NNE 02:25:35 44° ESE 02:29:17 10° S
NOSS 3-1 (A) 3.2 02:23:03 10° SSW 02:29:10 83° ESE 02:34:32 10° NNE
CZ-4B DEB 4.5 02:23:46 10° NNE 02:29:12 69° ESE 02:34:42 10° S
ALOS 4.1 02:27:17 10° NE 02:31:26 32° ESE 02:35:37 10° S
Milstar 3 Cent rocket 3.1 02:33:03 27° NNW 02:33:13 27° NNW 02:37:14 10° NE
BREEZE-M DEB (TANK) 4.1 02:24:17 10° SW 02:34:10 82° SE 02:37:25 10° NE
GPS 2-05 Rocket1 3.0 02:35:35 53° SE 02:35:35 53° SE 02:38:06 10° E
Cosmos 2278 3.6 02:29:56 10° SSW 02:35:34 61° WNW 02:41:08 10° N
Gblst 52 Del rocket 4.4 02:33:29 33° WSW 02:35:53 52° NW 02:41:22 10° NNE
Cosmos 1833 Rocket 4.3 02:37:01 18° SW 02:37:01 18° SW 02:40:15 10° SSW
Cosmos 372 Rocket 3.9 02:36:44 32° NW 02:39:05 65° WSW 02:44:12 10° S
SL-16 R/B 4.3 02:37:56 10° SSW 02:39:55 13° SW 02:39:55 13° SW
Cosmos 1125 Rocket 3.7 02:38:02 10° N 02:43:16 75° ENE 02:48:32 10° SSE
Meteor 1-19 Rocket 4.1 02:39:31 10° S 02:45:04 88° E 02:50:36 10° N
Cosmos 1689 Rocket 3.5 02:42:59 10° S 02:44:48 28° SSW 02:44:48 28° SSW
SL-27 R/B 4.2 02:50:35 18° SSW 02:50:35 18° SSW 02:51:56 10° SSW
COSMOS 2487 4.3 02:46:08 10° NNE 02:49:15 32° ENE 02:52:26 10° SE
Lacrosse 4 Rocket 4.3 02:47:48 10° S 02:51:08 20° SE 02:54:27 10° ENE
FENGYUN 3A 4.4 02:46:06 10° NNE 02:51:26 56° ESE 02:56:48 10° S
Cosmos 2360 4.3 02:49:17 10° SSW 02:54:53 54° WNW 03:00:24 10° N
Cosmos 2266 Rocket 4.4 02:49:34 10° SSW 02:55:25 39° W 03:01:08 10° NNW
Okean 1 3.9 02:55:29 10° SSW 02:59:10 34° W 03:02:47 10° NNW
CZ-3B Rocket 3.9 02:58:10 10° N 02:59:23 11° NNE 03:00:45 10° NNE
Okean 3 3.3 02:55:35 10° S 02:59:50 74° W 03:04:00 10° N
METEOR-M 4.3 02:55:00 10° NNE 03:00:20 77° ESE 03:05:44 10° S
NOSS 3-1 (C) 3.9 02:56:20 10° SW 03:01:22 30° WNW 03:05:58 10° N
PAYLOAD B 4.2 02:56:43 10° N 03:02:14 66° WNW 03:07:49 10° SSW
USA 234 3.4 02:58:21 10° SE 03:04:49 62° SW 03:10:24 14° WNW
DEBRIS 1.8 03:04:16 36° WNW 03:05:01 70° SW 03:08:28 10° SE
Meteor 1-11 Rocket 3.8 03:00:13 10° N 03:05:46 83° E 03:11:31 10° S
Cosmos 1733 Rocket 3.3 03:02:18 10° NNW 03:06:35 48° W 03:10:54 10° S
Meteor 2-4 Rocket 3.7 03:05:07 10° S 03:10:54 86° W 03:16:27 10° N
Cosmos 1697 Rocket 3.7 03:07:34 10° SW 03:11:51 22° W 03:16:08 10° NNW
Cosmos 2322 Rocket 3.5 03:09:48 10° S 03:15:19 45° ESE 03:20:45 10° NE
NOSS 2-3 (C) 4.1 03:11:50 10° SW 03:17:53 59° WNW 03:22:39 10° NNE
SL-8 R/B 4.3 03:15:22 17° W 03:18:49 44° SSW 03:23:28 10° SE
Okean O Rocket 1.7 03:14:41 10° N 03:19:02 55° W 03:23:25 10° SSW
Delta 168 4.4 03:16:44 11° NW 03:19:31 20° N 03:22:05 10° NE
CZ-2C R/B 4.1 03:21:54 12° WNW 03:23:36 14° W 03:26:19 10° WSW
Cosmos 1674 Rocket 3.5 03:19:42 10° S 03:24:12 73° W 03:28:35 10° N
Cosmos 1666 3.7 03:20:50 10° N 03:24:35 52° E 03:28:25 10° SSE
Radarsat Rocket 4.0 03:18:43 10° NNE 03:25:11 81° WNW 03:31:10 10° SSW
Cosmos 1340 2.6 03:23:08 10° N 03:26:55 83° W 03:30:46 10° S
Cosmos 1515 4.2 03:28:15 10° SSW 03:31:50 38° W 03:35:23 10° NNW
Meteor 1-13 Rocket 4.2 03:27:12 10° SSW 03:32:45 69° W 03:38:14 10° N
Delta 7925 Rocket 4.3 03:29:50 10° WNW 03:34:02 33° N 03:38:33 10° ENE
CZ-4B R/B 3.5 03:31:43 10° N 03:36:41 40° W 03:41:42 10° SSW
Cosmos 1782 Rocket 3.8 03:37:08 10° N 03:41:35 80° E 03:46:09 10° S
Cosmos 2360 Rocket 3.9 03:39:05 10° S 03:44:21 37° ESE 03:49:32 10° NE
